Regional Weather Roundup
Issued by NWS Charleston, WV

Home | Current Version | Previous Version | Text Only | Print | Product List | Glossary On
Versions: 1 2 3 4 5 6 7 8 9 10 11 12 13 14 15 16 17 18 19 20 21 22 23 24 25 26 27 28 29 30 31 32 33 34 35 36 37 38 39 40 41 42 43 44 45 46 47 48 49 50
000
ASUS41 KRLX 311610
RWRRLX
West Virginia Regional Weather Roundup
National Weather Service Charleston WV
1200 PM EDT MON AUG 31 2015

Note: "fair" indicates few or no clouds below 12,000 feet with no
significant weather and/or obstructions to visibility.

WVZ003-311700-
Northern Panhandle of West Virginia

CITY           SKY/WX    TMP DP  RH WIND       PRES   REMARKS
WHEELING       MOSUNNY   80  68  66 VRB5      30.15S
$$

WVZ009-311700-
Northwest West Virginia

CITY           SKY/WX    TMP DP  RH WIND       PRES   REMARKS
PARKERSBURG    PTSUNNY   85  67  54 W5        30.17S
$$

WVZ006-311700-
Western West Virginia

CITY           SKY/WX    TMP DP  RH WIND       PRES   REMARKS
HUNTINGTON     MOSUNNY   83  64  52 E3        30.15F
$$

WVZ015-311700-
West Central West Virginia

CITY           SKY/WX    TMP DP  RH WIND       PRES   REMARKS
CHARLESTON     MOSUNNY   83  66  56 VRB3      30.16S
$$

WVZ022-031-311700-
North Central West Virginia

CITY           SKY/WX    TMP DP  RH WIND       PRES   REMARKS
CLARKSBURG     SUNNY     84  65  52 VRB3      30.16F
MORGANTOWN     MOSUNNY   83  64  52 VRB5      30.16F
$$

WVZ025-035-042-045-311700-
Southern West Virginia

CITY           SKY/WX    TMP DP  RH WIND       PRES   REMARKS
BECKLEY        PTSUNNY   75  62  64 NW6       30.23S
LOGAN            N/A     81  66  61 CALM      30.19S
BLUEFIELD      MOSUNNY   79  55  43 VRB5      30.25S
LEWISBURG      MOSUNNY   78  57  47 E3        30.21F
$$

WVZ047-311700-
Northern Mountains of West Virginia

CITY           SKY/WX    TMP DP  RH WIND       PRES   REMARKS
ELKINS         PTSUNNY   76  63  64 VRB3      30.21S
$$

WVZ052-311700-
Eastern Panhandle of West Virginia

CITY           SKY/WX    TMP DP  RH WIND       PRES   REMARKS
MARTINSBURG    CLOUDY    82  66  58 SW5       30.12S
PETERSBURG     CLOUDY    79  68  67 CALM      30.15F
$$


USA.gov is the U.S. government's official web portal to all federal, state and local government web resources and services.